User: anonymous   Login
Location: Unspecified
(0.0000°N, 0.0000°E)
Time: 11:13:53
(UTC+00:00)
Language:

BEIDOU M1 - Orbit

View from above orbital plane
View from above orbital plane
View from above satellite
View from above satellite

Ground track
Ground track

The orbit data is extracted from the following two-line orbital elements,

1 31115U 07011A   18016.33108922 -.00000067 +00000-0 +00000-0 0  9998
2 31115 053.0771 320.7928 0002915 296.1133 063.8580 01.77348411021637
Epoch (UTC): 16 January 2018 07:56:46
Eccentricity: 0.0002915
inclination: 53.0771°
perigee height: 22443 km
apogee height: 22460 km
right ascension of ascending node: 320.7928°
argument of perigee: 296.1133°
revolutions per day: 1.77348411
mean anomaly at epoch: 63.8580°
orbit number at epoch: 2163

The dashed part of the orbit path shows where the satellite is in the earth's shadow,  

DLR